Location: Unspecified
(50.7693°N, 0.0000°E)
Time: 22:22:27
(UTC+00:00)

deb Explorer IX - Visible Passes

Search period start: 01 October 2020 00:00
Search period end: 11 October 2020 00:00
Orbit: 538 x 1105 km, 38.8° (Epoch: 01 October)

Date Brightness Start Highest point End Pass type
(mag) Time Alt. Az. Time Alt. Az. Time Alt. Az.
01 Oct ? 19:16:43 10° SW 19:19:24 16° S 19:20:53 13° SSE visible
02 Oct ? 18:53:29 10° SW 18:56:19 16° S 18:58:58 10° SSE visible
03 Oct ? 18:30:14 10° SW 18:33:14 17° SSW 18:36:02 10° SSE visible
04 Oct ? 18:06:56 10° SW 18:10:08 17° SSW 18:13:06 10° SSE visible
